Opa Locka, FL

4:04 PM EDT on April 24, 2017 (GMT -0400)
Opa Locka

Weather History for KOPF - June, 2013

Change the Weather History Date:

Saturday, June 1, 2013

  Actual Average Record
Temperature  
Mean Temperature 80 °F -  
Max Temperature 87 °F 88 °F 95 °F (2004)
Min Temperature 73 °F 73 °F 60 °F (1971)
Cooling Degree Days 15    
Growing Degree Days 30 (Base 50)    
Moisture  
Dew Point 73 °F    
Average Humidity 86    
Maximum Humidity 100    
Minimum Humidity 63    
Precipitation  
Precipitation 0.93 in - - ()
Sea Level Pressure  
Sea Level Pressure 30.01 in    
Wind  
Wind Speed 6 mph (SE)    
Max Wind Speed 18 mph    
Max Gust Speed 26 mph    
Visibility 9 miles    
Events Rain    
Averages and records for this station are not official NWS values.
T = Trace of Precipitation, MM = Missing Value Source: NWS Daily Summary

Daily Weather History Graph

Daily Weather History Graph

Search for Another Location

Airport or City:

Trip Planner

Search our weather history database for the weather conditions in past years. The results will help you decide how hot, cold, wet, or windy it might be!

Date:

Astronomy

Jun. 01, 2013 Rise Set
Actual Time 6:29 AM EDT 8:08 PM EDT
Civil Twilight 6:03 AM EDT 8:34 PM EDT
Nautical Twilight 5:32 AM EDT 9:05 PM EDT
Astronomical Twilight 5:00 AM EDT 9:37 PM EDT
Moon 1:47 AM EDT (6/1) 2:10 PM EDT (6/1)
Length of Visible Light 14h 30m
Length of Day
13h 39m
Last Quarter, 41% of the Moon is Illuminated
Jun 1
Last Quarter
Jun 8
New
Jun 16
First Quarter
Jun 23
Full
Jun 30
Last Quarter

Hourly Weather History & Observations

Time (EDT) Temp. Heat Index Dew Point Humidity Pressure Visibility Wind Dir Wind Speed Gust Speed Precip Events Conditions
12:15 AM 77.0 °F - 73.4 °F 89% 30.04 in 10.0 mi South 8.1 mph - N/A   Overcast
12:45 AM 75.2 °F - 73.4 °F 94% 30.03 in 10.0 mi SSW 6.9 mph - N/A   Overcast
12:53 AM 75.0 °F - 73.0 °F 94% 30.03 in 10.0 mi SSW 6.9 mph - N/A   Overcast
1:21 AM 75.2 °F - 73.4 °F 94% 30.02 in 10.0 mi South 5.8 mph - N/A   Overcast
1:53 AM 75.0 °F - 73.0 °F 94% 30.01 in 8.0 mi SSW 3.5 mph - 0.01 in Rain Light Rain
2:15 AM 75.2 °F - 73.4 °F 94% 30.00 in 10.0 mi Calm Calm - 0.00 in   Overcast
2:53 AM 75.9 °F - 73.9 °F 94% 29.99 in 10.0 mi Calm Calm - 0.01 in   Overcast
3:03 AM 75.2 °F - 73.4 °F 94% 29.99 in 10.0 mi Calm Calm - N/A   Overcast
3:24 AM 75.2 °F - 73.4 °F 94% 29.98 in 10.0 mi South 10.4 mph - 0.00 in   Overcast
3:39 AM 75.2 °F - 73.4 °F 94% 29.98 in 10.0 mi South 5.8 mph - 0.00 in   Mostly Cloudy
3:53 AM 75.0 °F - 73.0 °F 94% 29.99 in 10.0 mi South 4.6 mph - 0.00 in   Mostly Cloudy
4:53 AM 73.9 °F - 73.0 °F 97% 29.97 in 10.0 mi Calm Calm - N/A   Clear
5:53 AM 75.0 °F - 73.0 °F 94% 29.99 in 10.0 mi Calm Calm - N/A   Mostly Cloudy
6:53 AM 75.0 °F - 73.0 °F 94% 30.00 in 10.0 mi Calm Calm - N/A   Scattered Clouds
7:53 AM 77.0 °F - 73.9 °F 90% 30.00 in 10.0 mi NE 3.5 mph - N/A   Clear
8:53 AM 80.1 °F 84.5 °F 73.9 °F 81% 30.02 in 10.0 mi ESE 4.6 mph - N/A   Clear
9:29 AM 80.6 °F 85.4 °F 73.4 °F 79% 30.03 in 10.0 mi ESE 9.2 mph - N/A   Mostly Cloudy
9:38 AM 80.6 °F 85.4 °F 73.4 °F 79% 30.03 in 10.0 mi East 6.9 mph - N/A   Mostly Cloudy
9:53 AM 80.1 °F 84.5 °F 73.9 °F 81% 30.03 in 10.0 mi ESE 8.1 mph - N/A   Mostly Cloudy
10:00 AM 80.6 °F 85.4 °F 73.4 °F 79% 30.03 in 10.0 mi East 9.2 mph - N/A   Overcast
10:53 AM 84.0 °F 90.2 °F 73.0 °F 69% 30.03 in 10.0 mi Variable 5.8 mph - N/A   Scattered Clouds
11:06 AM 84.2 °F 90.9 °F 73.4 °F 70% 30.03 in 10.0 mi SSE 8.1 mph - N/A   Mostly Cloudy
11:36 AM 82.4 °F 88.2 °F 73.4 °F 74% 30.03 in 10.0 mi SE 8.1 mph - N/A   Overcast
11:53 AM 86.0 °F 93.8 °F 73.9 °F 67% 30.03 in 10.0 mi ESE 8.1 mph - N/A   Scattered Clouds
12:53 PM 86.0 °F 92.2 °F 72.0 °F 63% 30.01 in 10.0 mi South 10.4 mph - N/A   Mostly Cloudy
1:53 PM 87.1 °F 95.4 °F 73.9 °F 65% 30.00 in 10.0 mi SE 12.7 mph - N/A   Partly Cloudy
2:53 PM 84.0 °F 90.2 °F 73.0 °F 69% 29.99 in 10.0 mi SE 16.1 mph - N/A   Mostly Cloudy
3:22 PM 82.4 °F 88.2 °F 73.4 °F 74% 29.98 in 10.0 mi ESE 12.7 mph - N/A   Overcast
3:53 PM 84.9 °F 91.4 °F 73.0 °F 67% 29.98 in 10.0 mi SSE 11.5 mph - N/A   Scattered Clouds
4:29 PM 84.2 °F 90.9 °F 73.4 °F 70% 29.96 in 10.0 mi SSE 10.4 mph - N/A   Mostly Cloudy
4:53 PM 82.9 °F 88.8 °F 73.0 °F 72% 29.98 in 10.0 mi SSE 11.5 mph - N/A   Mostly Cloudy
5:03 PM 82.4 °F 88.2 °F 73.4 °F 74% 29.98 in 10.0 mi SSE 9.2 mph - N/A   Mostly Cloudy
5:19 PM 78.8 °F - 71.6 °F 78% 29.98 in 10.0 mi SW 18.4 mph 26.5 mph N/A   Overcast
5:27 PM 75.2 °F - 68.0 °F 78% 29.98 in 10.0 mi SW 16.1 mph 24.2 mph 0.00 in Rain Light Rain
5:42 PM 75.2 °F - 71.6 °F 89% 30.02 in 2.0 mi Calm Calm - 0.05 in Rain Rain
5:51 PM 73.4 °F - 71.6 °F 94% 30.01 in 1.0 mi NNW 8.1 mph - 0.36 in Rain Heavy Rain
5:53 PM 73.9 °F - 71.1 °F 91% 30.01 in 1.0 mi NNW 5.8 mph - 0.42 in Rain Heavy Rain
6:10 PM 73.4 °F - 73.4 °F 100% 30.01 in 3.0 mi Calm Calm - 0.32 in Rain Heavy Rain
6:24 PM 73.4 °F - 73.4 °F 100% 29.99 in 10.0 mi SSW 8.1 mph - 0.34 in Rain Light Rain
6:53 PM 75.0 °F - 73.9 °F 96% 30.00 in 10.0 mi Calm Calm - 0.40 in Rain Light Rain
7:17 PM 75.2 °F - 73.4 °F 94% 30.01 in 10.0 mi NNE 4.6 mph - 0.02 in Rain Light Rain
7:53 PM 75.0 °F - 73.9 °F 96% 30.00 in 10.0 mi North 3.5 mph - 0.06 in Rain Light Rain
7:59 PM 75.2 °F - 73.4 °F 94% 30.00 in 10.0 mi NNE 5.8 mph - 0.00 in Rain Light Rain
8:19 PM 75.2 °F - 73.4 °F 94% 30.01 in 10.0 mi North 8.1 mph - 0.02 in Rain Light Rain
8:27 PM 75.2 °F - 73.4 °F 94% 30.01 in 10.0 mi North 6.9 mph - 0.02 in Rain Light Rain
8:33 PM 75.2 °F - 73.4 °F 94% 30.01 in 10.0 mi North 8.1 mph - 0.02 in Rain Light Rain
8:47 PM 75.2 °F - 73.4 °F 94% 30.02 in 10.0 mi NNW 6.9 mph - 0.02 in Rain Light Rain
8:53 PM 75.0 °F - 73.0 °F 94% 30.03 in 10.0 mi NNW 5.8 mph - 0.02 in   Overcast
9:53 PM 75.0 °F - 72.0 °F 90% 30.01 in 10.0 mi Calm Calm - 0.01 in   Scattered Clouds
10:53 PM 75.0 °F - 73.0 °F 94% 30.02 in 10.0 mi SW 4.6 mph - N/A   Mostly Cloudy
11:53 PM 75.0 °F - 73.0 °F 94% 30.02 in 10.0 mi East 3.5 mph - N/A   Clear